Home > Weather > Koszalin > Past weeks

Flag for Poland Past Weather in Koszalin, Poland — Yesterday and Last 2 Weeks

Now
62 °F

Passing clouds.


Feels Like: 62 °F
Forecast: 63 / 76 °F
Wind: 1 mph from Northeast

Location: Koszalin

Current Time: May 29, 2016 at 7:47:12 AM

Latest Report: May 29, 2016 at 7:00 AM


Visibility: 9 mi

Pressure: 29.90 "Hg

Humidity: 94%

Dew Point: 60 °F

Location of KoszalinLocation

Past Weather in Koszalin — Graph

°F

Koszalin Temperature Yesterday

Maximum temperature yesterday: 68 °F (at 1:00 PM)
Minimum temperature yesterday: 55 °F (at 12:00 AM)
Average temperature yesterday: 61 °F

High & Low Weather Summary for the Past Weeks

 TemperatureHumidityPressure
High83 °F (May 23, 5:00 PM)98% (May 28, 5:00 AM)30.07 "Hg (May 28, 5:00 AM)
Low42 °F (May 18, 5:00 AM)30% (May 23, 5:00 PM)29.50 "Hg (May 14, 6:00 AM)
Average58 °F73%29.89 "Hg
* Reported May 14 6:00 AM — May 29 6:00 AM, Koszalin, Weather by CustomWeather, © 2016

Note: Actual official high and low records may vary slightly from our data, if they occured in-between our weather recording intervals... More about our weather records

Advertising

Koszalin Weather History for the Previous 24 Hours

Scroll right to see more
 ConditionsComfort  
Time TempWeatherWind HumidityBarometerVisibility
6:00 AM
Sun, May 29
58 °FFog.1 mph97%29.91 "Hg5 mi
5:00 AM57 °FFog.2 mph96%29.92 "Hg3 mi
4:00 AM58 °FClear.2 mph94%29.93 "Hg6 mi
3:00 AM59 °FOvercast.1 mph93%29.94 "Hg7 mi
2:00 AM60 °FFog.No wind93%29.94 "Hg6 mi
1:00 AM61 °FOvercast.1 mph93%29.95 "Hg4 mi
12:00 AM63 °FPassing clouds.1 mph90%29.96 "Hg8 mi
11:00 PM
Sat, May 28
62 °FOvercast.1 mph90%29.96 "Hg6 mi
10:00 PM64 °FOvercast.2 mph84%29.97 "Hg12 mi
9:00 PM66 °FOvercast.1 mph78%29.98 "Hg14 mi
8:00 PM67 °FPassing clouds.2 mph77%29.97 "Hg15 mi
7:00 PM67 °FScattered clouds.2 mph81%29.96 "Hg12 mi
4:00 PM65 °FSprinkles. Overcast.1 mph79%29.99 "Hg11 mi
3:00 PM64 °FOvercast.3 mph78%30.00 "Hg15 mi
2:00 PM66 °FOvercast.3 mph75%30.01 "Hg11 mi
1:00 PM68 °FScattered clouds.2 mph69%30.01 "Hg15 mi
11:00 AM65 °FOvercast.1 mph71%30.02 "Hg15 mi
10:00 AM64 °FOvercast.1 mph82%30.03 "Hg7 mi
9:00 AM60 °FFog.1 mph91%30.03 "Hg5 mi
8:00 AM59 °FFog.No wind95%30.03 "Hg5 mi
7:00 AM57 °FFog.1 mph98%30.03 "Hg5 mi
Weather by CustomWeather, © 2016

See weather overviewHow to use our weather pages